AirNav   ProFlight Series 2 Aviation Headset
 
 777 users online  

OK47 Miller Brothers Airport
Manchester, Oklahoma, USA

GOING TO MANCHESTER?


FAA INFORMATION EFFECTIVE 16 JULY 2020

Location

FAA Identifier: OK47
Lat/Long: 36-56-30.0940N 098-01-01.2220W
36-56.501567N 098-01.020367W
36.9416928,-98.0170061
(estimated)
Elevation: 1250 ft. / 381 m (estimated)
Variation: 07E (1985)
From city: 3 miles S of MANCHESTER, OK
Time zone: UTC -5 (UTC -6 during Standard Time)
Zip code: 73758

Airport Operations

Airport use: Private use. Permission required prior to landing
Control tower: no
ARTCC: KANSAS CITY CENTER
FSS: MC ALESTER FLIGHT SERVICE STATION
Attendance: UNATNDD
Wind indicator: yes
Segmented circle: no

Nearby radio navigation aids

VOR radial/distance  VOR name  Freq  Var
ANYr144/15.0ANTHONY VORTAC112.9007E
ODGr334/35.8WOODRING VOR/DME109.0008E
ENDr347/36.1VANCE VORTAC115.4005E

Airport Services

Airframe service: NONE
Powerplant service: NONE

Runway Information

Runway N/S

Dimensions: 1300 x 50 ft. / 396 x 15 m
Surface: turf
RUNWAY N  RUNWAY S
Traffic pattern: leftleft

Airport Ownership and Management from official FAA records

Ownership: Privately-owned
Owner: MILLER BROTHERS
3850 S. 94 E. AVE
TULSA, OK 74145
Manager: ALDEN MILLER

Airport Operational Statistics

Aircraft based on the field: 1
Single engine airplanes: 1
    

Additional Remarks

FARM BLDGS NW CORNER.
FOR CD CTC VANCE APCH AT580-213-6765. WHEN VANCE APCH IS CLSD, CTC KANSAS CITY ARTCC AT 913-254-8508.

Instrument Procedures

There are no published instrument procedures at OK47.

Some nearby airports with instrument procedures:

KANY - Anthony Municipal Airport (13 nm N)
O53 - Medford Municipal Airport (16 nm SE)
8K2 - Harper Municipal Airport (20 nm N)
KAVK - Alva Regional Airport (33 nm W)
KBKN - Blackwell-Tonkawa Municipal Airport (34 nm E)
 
Loc | Ops | Rwys | IFR | FBO | Links
Com | Nav | Svcs | Stats | Notes
Area around OK47 (Miller Brothers Airport)
 
Road maps at: MapQuest Bing Google
 
Aerial photo
No photo
 
Sectional chart

 
Airport distance calculator
Flying to Miller Brothers Airport? Find the distance to fly.

From to OK47

Sunrise and sunset
Times for 11-Aug-2020
 Local
(UTC-5)
 Zulu
(UTC)
Morning civil twilight06:2011:20
Sunrise06:4711:47
Sunset20:2701:27
Evening civil twilight20:5401:54

Current date and time
Zulu (UTC)  12-Aug-2020 04:50:16
Local (UTC-5)  11-Aug-2020 23:50:16
 
METAR
KP28 
33nm NW 
120356Z AUTO 13005KT 24/21 A2996 RMK AO1 SLP130 T02390206
KAVK 
33nm W 
120435Z AUTO 12009KT 10SM CLR 24/23 A2996 RMK AO2 PWINO TSNO
KBKN 
34nm E 
120435Z AUTO 13003KT 10SM 23/23 A2997 RMK AO2
KWDG 
37nm S 
120435Z AUTO 13007KT 10SM CLR 23/22 A2995 RMK AO2
KEND 
38nm S 
120356Z AUTO 11010KT 10SM CLR 24/24 A2996 RMK AO2 SLP135 T02380238 $
TAF
KEND 
38nm S 
120200Z 1202/1308 09010KT 9999 FEW150 QNH2990INS BECMG 1218/1219 15010KT 9999 FEW160 QNH2983INS TX36/1221Z TN25/1211Z
KPNC 
46nm E 
111720Z 1118/1218 14009KT P6SM BKN120 BKN200 FM120000 12004KT P6SM SKC
NOTAMs
Click for the latest NOTAMs
NOTAMs are issued by the DoD/FAA and will open in a separate window not controlled by AirNav.

 

 
 

Would you like to see your business listed on this page?

 If your business provides an interesting product or service to pilots, flight crews, aircraft, or users of the Miller Brothers Airport, you should consider listing it here.  To start the listing process, click on the button below
 
Add a business
 

Other Pages about Miller Brothers Airport

Update a link
 
Copyright © AirNav, LLC. All rights reserved. Privacy Policy  Contact